Flag for Canada Weather past 2 weeks in Arviat, Nunavut Territory, Canada

Now
37 °F

Mostly cloudy.


Feels Like: 26 °F
Forecast: 37 / 50 °F
Wind: 24 mph from South

Location: Arviat Airport

Current Time: Sep 23, 2014 at 1:31:58 AM

Latest Report: Sep 23, 2014 at 12:45 AM


Visibility: 9 mi

Pressure: 30.01 "Hg

Humidity: 81%

Dew point: 32 °F

Location of ArviatLocation

Historic Weather in Arviat — Graph

°F

Arviat temperature yesterday

Maximum temperature yesterday: 37 °F (at 11:51 PM)
Minimum temperature yesterday: 32 °F (at 8:00 AM)
Average temperature yesterday: 34 °F

Past Weeks' High & Low Weather Summary

 TemperatureHumidityPressure
High54 °F (Sep 10, 5:00 PM)100% (Sep 8, 3:00 AM)30.17 "Hg (Sep 8, 3:00 AM)
Low28 °F (Sep 15, 2:00 AM)47% (Sep 10, 5:00 PM)29.25 "Hg (Sep 19, 7:00 AM)
Average37 °F86%29.86 "Hg
* Reported Midnight between Sep 7 and Sep 8 — Midnight between Sep 22 and Sep 23, Arviat, Weather by CustomWeather, © 2014

Note: Actual official high and low records may vary slightly from our data, if they occured in-between our weather recording intervals... More about our weather records

Advertising

Arviat weather history for previous 24 hours

 ConditionsComfort  
Time TempWeatherWind HumidityBarometerVisibility
12:00 AM
Sep 23
37 °FMostly cloudy.22 mph81%30.03 "Hg9 mi
11:51 PM
Sep 22
37 °FMostly cloudy.21 mph81%30.03 "Hg9 mi
11:03 PM36 °FMostly cloudy.16 mph87%30.07 "Hg9 mi
10:46 PM36 °FMostly cloudy.18 mph87%30.07 "Hg9 mi
10:00 PM36 °FPassing clouds.15 mph81%30.07 "Hg9 mi
9:04 PM34 °FPassing clouds.15 mph87%30.09 "Hg9 mi
8:00 PM34 °FPassing clouds.10 mph87%30.11 "Hg9 mi
7:00 PM32 °FSunny.7 mph87%30.13 "Hg9 mi
6:00 PM34 °FSunny.8 mph81%30.13 "Hg9 mi
5:00 PM34 °FPassing clouds.6 mph81%30.13 "Hg15 mi
4:00 PM34 °FScattered clouds.5 mph81%30.13 "Hg15 mi
3:00 PM34 °FPassing clouds.6 mph81%30.12 "Hg15 mi
2:00 PM34 °FScattered clouds.5 mph81%30.12 "Hg15 mi
1:00 PM34 °FPartly sunny.8 mph81%30.11 "Hg15 mi
12:00 PM32 °FPartly sunny.9 mph80%30.11 "Hg15 mi
11:00 AM32 °FPartly sunny.10 mph80%30.10 "Hg15 mi
10:00 AM32 °FPartly sunny.10 mph80%30.08 "Hg15 mi
9:00 AM32 °FPartly sunny.13 mph87%30.06 "Hg15 mi
8:00 AM32 °FPartly sunny.16 mph87%30.04 "Hg15 mi
7:00 AM34 °FOvercast.14 mph87%30.01 "Hg15 mi
6:00 AM34 °FOvercast.14 mph87%29.98 "Hg9 mi
5:03 AM34 °FMostly cloudy.13 mph87%29.96 "Hg9 mi
5:00 AM34 °FMostly cloudy.13 mph87%29.96 "Hg9 mi
4:00 AM36 °FOvercast.14 mph81%29.94 "Hg9 mi
3:00 AM36 °FOvercast.10 mph81%29.91 "Hg9 mi
2:00 AM36 °FOvercast.10 mph87%29.89 "Hg9 mi
1:00 AM36 °FMostly cloudy.14 mph87%29.87 "Hg9 mi
Weather by CustomWeather, © 2014

See weather overviewHow to use our weather pages